Vertical_Velocity
-3 -4 -4 -4 -4 -4 -4 -3 -2 -1 -0 0 0 0 0 0 0 -0 -1 -1 -1 -1 -1 -1 -1 -0 0 1 1 2 2 2 2 2 2 2 2 2 2 2 2 2 2 2 1 1 1 1 1 2 3 4 3 4 6 10 11 10 9 8 6 5 4 5 4 3 2 2 7
-2 -3 -3 -3 -3 -4 -4 -3 -2 -2 -1 -1 -1 -1 -2 -2 -2 -3 -3 -3 -3 -2 -2 -3 -2 -2 -1 -1 -0 1 1 1 1 1 1 1 1 2 2 1 1 1 1 1 0 0 0 0 1 1 1 0 1 1 2 4 8 9 8 7 5 4 4 4 3 2 3 8 17
-2 -2 -2 -2 -2 -3 -3 -2 -2 -1 -1 -1 -1 -1 -2 -3 -3 -3 -4 -4 -3 -3 -3 -3 -3 -3 -3 -3 -2 -1 -0 0 0 -0 -0 -0 -0 -0 -0 0 0 0 0 0 -0 -1 -1 -0 -0 0 0 -1 -1 -1 -2 -2 -1 1 2 3 3 4 4 5 4 4 7 14 20
-1 -1 -1 -1 -2 -2 -2 -1 -1 -1 -1 -0 -0 -1 -1 -1 -2 -2 -3 -3 -3 -3 -3 -3 -3 -3 -4 -4 -4 -3 -2 -1 -1 -1 -1 -2 -2 -2 -2 -1 -1 -1 -1 -1 -1 -2 -2 -2 -1 -1 -1 -1 -2 -2 -2 -3 -3 -2 -1 0 1 2 3 4 4 4 5 9 10
-1 -1 -1 -1 -2 -2 -2 -2 -2 -2 -1 -0 -0 -1 -1 -1 -1 -1 -1 -2 -2 -2 -2 -2 -3 -3 -4 -4 -5 -4 -4 -3 -2 -1 -1 -2 -2 -2 -3 -2 -2 -2 -2 -2 -2 -2 -3 -3 -3 -2 -1 -1 -2 -2 -2 -1 -1 -1 -1 -0 0 1 2 3 3 3 3 2 2
-1 -1 -2 -2 -2 -2 -2 -3 -3 -2 -2 -2 -1 -1 -1 -0 -0 -0 -0 -1 -1 -1 -2 -2 -2 -3 -3 -4 -4 -4 -5 -4 -4 -3 -2 -2 -2 -2 -2 -2 -2 -2 -3 -3 -3 -3 -3 -3 -4 -3 -2 -1 -2 -2 -1 -1 -2 -1 0 0 -1 0 2 2 3 4 4 4 4
-2 -2 -2 -2 -2 -2 -2 -2 -3 -3 -3 -3 -2 -2 -2 -1 -1 -1 -1 -2 -2 -2 -2 -2 -3 -3 -3 -4 -4 -4 -4 -5 -4 -3 -3 -2 -2 -2 -2 -2 -2 -2 -2 -2 -2 -3 -3 -3 -3 -4 -4 -3 -3 -2 -0 -0 -3 -2 -2 -2 -2 -1 0 0 1 3 4 3 4
-1 -1 -1 -1 -1 -1 -1 -1 -2 -2 -3 -3 -3 -3 -2 -3 -3 -3 -3 -3 -3 -3 -3 -3 -4 -4 -4 -4 -4 -4 -4 -4 -4 -4 -3 -2 -2 -2 -2 -2 -2 -2 -2 -1 -1 -2 -2 -2 -2 -2 -2 -2 -3 -3 -2 1 -1 -2 -2 -3 -3 -2 -1 -1 0 1 2 2 3
-0 -0 -0 -0 -0 -0 -1 -1 -2 -2 -2 -3 -3 -3 -3 -3 -3 -3 -3 -4 -4 -3 -3 -4 -4 -3 -3 -4 -4 -4 -4 -4 -4 -4 -3 -2 -2 -2 -2 -2 -2 -2 -2 -1 -1 -1 -1 -0 -1 -1 -1 -1 -4 -4 -3 -0 -1 -1 -1 -1 -2 -3 -2 -2 -1 -1 0 1 2
-1 -1 -1 -1 -1 -1 -1 -1 -2 -2 -2 -2 -2 -2 -2 -3 -3 -3 -3 -3 -3 -3 -3 -3 -3 -3 -3 -3 -3 -3 -3 -3 -3 -3 -3 -2 -1 -1 -1 -1 -1 -2 -2 -2 -1 -1 -0 1 1 0 -0 -0 -1 -2 -3 -3 -3 -2 -2 -1 -1 -2 -3 -2 -2 -2 -2 -0 1
-2 -2 -2 -2 -2 -2 -2 -2 -2 -2 -1 -1 -2 -2 -2 -2 -2 -2 -2 -2 -2 -3 -3 -2 -2 -2 -2 -2 -2 -3 -3 -3 -3 -3 -3 -2 -1 -0 0 0 0 -0 -0 -1 -0 -0 -0 0 1 1 1 0 0 -1 -2 -2 -2 -3 -2 -2 -1 -1 -2 -1 -1 -2 -2 -1 -0
-2 -2 -3 -3 -3 -3 -3 -3 -2 -2 -2 -1 -1 -1 -1 -1 -1 -1 -1 -1 -1 -1 -2 -2 -2 -2 -1 -1 -2 -2 -2 -2 -2 -3 -3 -3 -2 -1 -0 0 1 1 1 1 1 1 1 1 1 1 1 0 1 0 -0 -1 -2 -2 -2 -2 -2 -2 -1 -1 -0 -1 -2 -1 -0
-2 -3 -3 -3 -3 -3 -3 -3 -3 -3 -2 -2 -2 -2 -2 -2 -2 -1 -1 -1 -1 -1 -1 -1 -1 -1 -1 -1 -1 -2 -2 -2 -2 -2 -2 -2 -2 -2 -2 -1 0 0 1 1 1 2 1 1 2 2 1 0 1 1 1 0 -0 -1 -1 -1 -2 -2 -1 -0 -0 -1 -1 -0 -0
-2 -2 -2 -2 -2 -3 -3 -3 -3 -3 -3 -3 -3 -3 -3 -3 -2 -2 -2 -2 -1 -1 -1 -1 -0 0 0 -0 -0 -1 -1 -2 -2 -2 -2 -2 -2 -2 -3 -2 -1 -0 0 0 1 1 1 1 1 1 1 1 1 1 1 1 1 1 1 1 0 -0 -0 1 0 -0 -0 0 1
-2 -1 -1 -1 -2 -2 -2 -2 -2 -3 -3 -3 -3 -3 -3 -3 -3 -3 -3 -3 -2 -2 -2 -1 -1 -0 0 1 0 -0 -0 -1 -1 -1 -1 -2 -2 -2 -3 -3 -3 -2 -1 -0 0 1 2 2 1 1 0 0 1 1 1 0 0 1 1 2 1 1 1 1 1 1 1 2 3
-1 -1 -1 -1 -1 -1 -1 -1 -1 -2 -2 -3 -3 -3 -3 -3 -3 -3 -3 -3 -3 -3 -3 -3 -2 -2 -1 -1 -0 0 -0 -1 -0 -0 -0 -0 -1 -1 -2 -3 -3 -3 -3 -2 -1 -0 1 2 1 1 0 -0 0 1 0 -0 -0 -0 -0 0 1 1 1 1 1 1 1 1 2
-1 -1 -1 -1 -1 -1 -1 -1 -1 -1 -1 -2 -2 -2 -2 -2 -2 -2 -2 -2 -2 -3 -3 -3 -3 -3 -4 -4 -2 -2 -1 -2 -1 -0 -0 0 1 0 -0 -1 -2 -3 -4 -4 -4 -2 -1 0 1 1 0 0 1 1 1 0 -0 -1 -1 -2 -1 -1 -1 -0 0 0 0 1 1
-1 -2 -2 -2 -2 -1 -1 -1 -1 -1 -0 -1 -1 -1 -1 -1 -1 -1 -1 -1 -1 -2 -2 -2 -2 -3 -4 -5 -4 -4 -4 -3 -3 -2 -2 -1 -0 0 0 0 0 -1 -2 -3 -4 -3 -3 -2 -1 -1 -0 -0 0 1 1 1 1 1 -0 -1 -2 -2 -2 -2 -2 -1 -0 0 0
-1 -2 -2 -2 -2 -2 -2 -2 -1 -1 -1 -1 -1 -1 -1 -1 -1 -1 -1 -1 -0 -0 -0 -1 -1 -2 -3 -4 -4 -4 -4 -4 -4 -4 -3 -3 -2 -2 -1 -0 -0 -0 -0 -1 -2 -2 -3 -3 -3 -3 -2 -2 -1 -0 1 1 2 2 1 1 -1 -1 -2 -2 -2 -2 -2 -1 -1
-1 -2 -2 -2 -3 -3 -3 -3 -3 -3 -2 -2 -2 -2 -2 -2 -1 -1 -1 -1 -1 -0 -0 -0 -0 -1 -2 -2 -3 -4 -4 -3 -3 -4 -4 -3 -3 -3 -3 -1 -2 -1 -1 0 -0 -0 -1 -2 -2 -3 -3 -3 -3 -2 -1 -0 0 1 1 2 1 0 -0 -1 -1 -2 -2 -2 -1
-1 -1 -2 -2 -3 -3 -4 -4 -4 -4 -4 -4 -4 -4 -4 -3 -3 -3 -2 -2 -1 -1 -1 -1 -0 -1 -1 -2 -2 -2 -2 -2 -2 -3 -3 -2 -3 -3 -3 -2 -3 -3 -1 0 -0 0 0 0 -0 -1 -2 -2 -3 -4 -3 -3 -2 -1 -1 0 0 1 1 0 -1 -1 -1 -1 -1
-1 -1 -1 -2 -2 -3 -3 -4 -4 -5 -5 -5 -5 -4 -4 -4 -4 -3 -3 -2 -2 -2 -2 -2 -1 -1 -2 -1 -1 -2 -2 -1 -1 -1 -1 -0 -2 -2 -2 -2 -3 -3 -2 -0 0 0 0 1 1 1 0 -1 -2 -3 -3 -3 -3 -3 -2 -1 -1 -1 -0 -0 -0 -1 -1 -1 -1
-2 -2 -2 -1 -1 -1 -2 -2 -2 -2 -3 -3 -3 -3 -3 -3 -2 -2 -2 -2 -2 -2 -2 -2 -2 -2 -2 -2 -1 -1 -1 -1 -1 -1 -0 0 -0 -1 -1 -1 -2 -2 -2 0 0 0 0 1 1 1 1 0 -1 -1 -1 -1 -2 -1 -1 -1 -1 -2 -2 -1 -1 -1 -1 -1 -1
-2 -2 -2 -2 -2 -1 -1 -0 -0 0 0 0 0 0 0 0 0 -0 -1 -1 -2 -2 -3 -3 -3 -2 -2 -2 -2 -1 -1 -1 -1 -1 -1 -0 -0 -0 -0 -0 -1 -2 -2 -0 0 0 0 1 0 -0 -0 0 -1 -0 0 1 0 0 0 0 -1 -2 -2 -2 -1 -0 -1 -1 -0
-2 -2 -2 -2 -2 -2 -1 -1 -0 0 1 1 1 1 1 1 1 1 -0 -1 -1 -2 -3 -3 -3 -2 -2 -2 -2 -2 -1 -1 -1 -1 -2 -2 -1 -1 -1 -1 -1 -1 -1 -1 -1 -1 -1 -0 -1 -1 -2 -1 -1 -0 0 1 1 1 1 1 0 -0 -1 -1 -0 0 0 0 0
-1 -1 -1 -1 -1 -1 -1 -1 -1 -1 -0 -0 0 0 -0 -0 -0 -0 -1 -1 -2 -2 -2 -3 -2 -2 -1 -2 -2 -2 -1 -1 -1 -1 -1 -2 -2 -2 -1 -1 -2 -2 -2 -1 -1 -1 -2 -2 -3 -4 -4 -4 -2 -1 -0 -0 1 1 0 -0 1 2 2 1 1 1 1 0 0
-0 -0 -0 -0 -0 -0 -1 -1 -1 -1 -1 -0 -1 -1 -1 -1 -1 -2 -2 -2 -2 -2 -2 -2 -1 -1 -0 -0 -0 -0 -1 -1 -1 -1 -1 -1 -1 -1 -1 -1 -1 -1 -2 -1 -1 -1 -1 -2 -3 -4 -6 -6 -5 -3 -2 -2 -1 -1 -0 -1 -0 1 2 2 2 3 2 1 0
0 0 0 1 0 0 -0 -0 -0 -0 -0 -0 -0 -1 -1 -1 -2 -2 -2 -2 -2 -2 -2 -2 -1 0 1 0 1 1 0 -1 -1 -1 -1 -1 -0 -0 0 1 1 -0 -0 -0 -0 0 1 1 -1 -3 -5 -6 -6 -5 -4 -3 -3 -2 -1 -1 -1 -0 1 1 2 3 3 1 1
0 1 1 1 0 0 -0 -0 -0 -0 -0 -0 -0 -0 -1 -1 -1 -2 -2 -2 -2 -2 -2 -2 -1 0 1 1 1 1 0 -1 -0 -0 -0 -1 -1 -0 0 1 1 2 2 3 2 2 4 4 3 1 -2 -4 -5 -5 -5 -4 -4 -3 -3 -2 -1 -1 -0 -0 0 1 1 1 1
0 1 1 1 0 -0 -0 -1 -1 -1 -1 -0 -0 -0 -0 -1 -1 -2 -2 -2 -2 -2 -2 -1 -1 0 0 0 0 -0 -0 -1 -0 -0 -1 -1 -1 -1 -0 0 1 2 4 6 5 4 5 6 5 4 2 -0 -2 -3 -4 -3 -3 -3 -3 -3 -2 -1 -1 -1 -0 -0 -0 0 1
-0 0 0 0 -0 -0 -1 -1 -1 -1 -1 -0 -0 -0 -1 -1 -1 -2 -2 -1 -2 -2 -2 -0 -0 -0 -0 -0 -0 -0 -1 -1 -0 -1 -1 -1 -2 -1 -1 -0 0 1 4 6 6 6 5 5 5 4 4 3 1 -0 -1 -1 -0 -1 -1 -2 -1 -1 -1 -1 -1 -1 -1 -0 -0
-1 -0 -0 -0 -0 -1 -1 -1 -1 -1 -0 -0 -0 -1 -1 -1 -1 -1 -1 -2 -1 -1 -1 -0 -0 -1 -1 -0 -1 -1 -1 -0 -0 -1 -1 -1 -2 -2 -1 -0 -0 1 2 4 5 6 6 5 4 2 2 2 2 1 -0 0 0 1 0 0 0 0 -0 -1 -1 -1 -1 -1 -1
-1 -1 -0 -0 -1 -1 -1 -1 -1 -1 -0 -0 -0 -0 -1 -1 -1 -1 -1 -1 -1 -1 -0 0 0 0 -0 -0 -0 -1 -1 -1 -0 -1 -1 -0 -1 -1 -2 -1 -1 0 1 1 2 4 5 6 4 2 0 -0 0 0 0 -0 0 1 1 1 1 1 1 0 -0 -1 -1 -1 -1
-1 -1 -1 -0 -1 -1 -1 -1 -1 -0 -0 -0 -1 -1 -1 -1 -1 -1 -1 -1 -1 -1 -0 0 1 0 0 0 1 -0 -1 -1 -0 -0 -1 -1 -1 -1 -2 -2 -1 0 0 -1 -1 1 4 5 4 3 0 -2 -2 -1 -0 -0 -0 0 1 1 1 2 2 1 0 -0 -0 -1 -1
-1 -1 -1 -1 -1 -1 -1 -1 -1 -1 -0 -0 -1 -1 -1 -1 -1 -1 -2 -2 -1 -1 -1 -1 -0 -0 -0 -1 0 0 -1 -1 -1 -1 -1 -1 -1 -2 -2 -2 -1 -0 0 -0 -1 -0 2 4 4 3 1 -2 -4 -3 -1 0 -0 -0 1 2 2 2 2 1 0 0 -0 -0 -1
-2 -1 -1 -1 -1 -1 -1 -1 -1 -1 -1 -1 -1 -1 -2 -2 -2 -2 -2 -2 -2 -2 -2 -1 -1 -1 -1 -2 -2 -1 -1 -1 -1 -1 -1 -1 -2 -3 -3 -3 -1 -1 0 0 -1 -0 1 3 3 2 1 -2 -4 -3 -2 -0 -0 0 1 2 1 2 2 2 1 0 0 0 -0
-2 -1 -1 -1 -1 -1 -1 -1 -1 -1 -1 -1 -1 -1 -2 -2 -2 -3 -3 -3 -3 -3 -3 -1 -1 -2 -2 -2 -3 -3 -2 -1 -1 -2 -2 -2 -2 -3 -4 -4 -2 -1 0 0 -0 -0 1 2 2 2 0 -2 -4 -4 -2 -1 -1 -0 0 1 1 2 3 3 1 1 1 1 1
-2 -2 -1 -1 -1 -1 -1 -1 -1 -1 -2 -2 -1 -1 -1 -1 -2 -2 -3 -3 -3 -4 -4 -2 -1 -1 -2 -3 -3 -3 -2 -1 -1 -2 -3 -3 -3 -3 -4 -5 -4 -1 0 0 -1 -0 1 2 2 1 -1 -2 -5 -6 -4 -3 -2 -2 -0 1 1 2 3 3 2 2 2 2 3
-3 -2 -2 -2 -2 -1 -1 -1 -1 -2 -2 -2 -1 -1 -1 -1 -2 -2 -2 -2 -3 -3 -3 -2 -1 -1 -2 -2 -3 -3 -2 -1 -1 -2 -3 -4 -4 -4 -4 -5 -5 -2 -0 0 -1 -1 -0 1 1 0 -1 -3 -6 -7 -7 -6 -4 -3 -2 0 1 1 3 4 4 3 3 4 5
-3 -2 -2 -2 -2 -2 -1 -1 -2 -2 -2 -1 -1 -1 -1 -1 -1 -2 -2 -2 -3 -3 -3 -2 -2 -1 -1 -1 -2 -2 -2 -1 -1 -1 -3 -5 -5 -5 -5 -5 -5 -4 -2 -1 -2 -2 -1 0 1 -0 -2 -4 -7 -9 -9 -8 -7 -6 -4 -1 1 2 3 5 6 6 5 6 7
-3 -2 -2 -3 -2 -2 -1 -1 -2 -2 -1 -1 -1 -2 -1 -1 -1 -1 -1 -2 -3 -3 -3 -3 -3 -2 -1 -1 -2 -1 -1 -1 -0 -0 -1 -4 -5 -5 -5 -5 -6 -5 -4 -2 -2 -3 -4 -2 -1 -1 -2 -4 -8 -10 -11 -10 -9 -8 -6 -1 2 3 4 6 8 8 7 8 9
Height
5732 5733 5733 5733 5734 5734 5735 5735 5735 5736 5737 5738 5739 5739 5740 5740 5740 5740 5740 5740 5741 5741 5741 5741 5741 5741 5741 5741 5740 5740 5740 5740 5740 5740 5740 5739 5739 5739 5739 5738 5738 5738 5738 5738 5738 5738 5738 5738 5738 5737 5737 5737 5737 5737 5736 5737 5737 5738 5738 5739 5739 5739 5739 5739 5739 5739 5738 5738 5738
5731 5731 5731 5732 5732 5733 5733 5734 5734 5734 5735 5735 5736 5737 5737 5738 5738 5738 5738 5738 5738 5738 5738 5739 5738 5738 5738 5738 5738 5737 5737 5737 5737 5736 5736 5736 5736 5735 5735 5735 5735 5735 5735 5735 5735 5735 5735 5735 5735 5734 5734 5734 5734 5734 5733 5734 5734 5735 5735 5736 5736 5735 5735 5735 5735 5735 5735 5736 5735
5730 5730 5730 5731 5731 5732 5732 5732 5732 5732 5733 5733 5733 5734 5735 5735 5735 5735 5736 5736 5736 5736 5736 5736 5736 5735 5735 5735 5735 5735 5734 5734 5734 5733 5733 5733 5732 5732 5732 5732 5732 5731 5731 5731 5731 5731 5731 5731 5731 5731 5731 5730 5731 5732 5731 5731 5731 5731 5732 5732 5732 5732 5732 5731 5731 5731 5731 5732 5732
5728 5729 5729 5730 5730 5730 5731 5731 5731 5731 5731 5731 5731 5731 5732 5732 5733 5733 5733 5733 5733 5733 5733 5733 5733 5733 5733 5732 5732 5731 5731 5731 5730 5730 5730 5729 5729 5729 5729 5728 5728 5728 5728 5728 5728 5728 5728 5728 5728 5728 5727 5727 5728 5728 5728 5728 5728 5728 5728 5728 5729 5729 5729 5728 5728 5727 5727 5727 5726
5727 5727 5728 5728 5728 5729 5729 5729 5729 5729 5729 5729 5729 5729 5730 5730 5730 5730 5730 5730 5730 5730 5730 5730 5730 5730 5730 5729 5729 5729 5728 5728 5727 5727 5726 5726 5726 5725 5725 5725 5725 5724 5724 5724 5724 5724 5724 5725 5725 5724 5724 5724 5724 5724 5724 5725 5725 5725 5725 5725 5725 5725 5725 5725 5725 5725 5724 5723 5722
5725 5725 5725 5726 5726 5726 5726 5726 5726 5726 5726 5726 5726 5727 5727 5727 5727 5727 5727 5727 5727 5727 5727 5727 5727 5726 5726 5726 5725 5725 5725 5724 5724 5724 5723 5723 5722 5722 5722 5721 5721 5721 5720 5720 5720 5720 5720 5720 5721 5721 5720 5720 5720 5720 5720 5721 5721 5722 5722 5721 5722 5722 5722 5722 5722 5721 5721 5720 5719
5723 5723 5723 5724 5724 5724 5724 5724 5724 5724 5724 5724 5724 5724 5724 5724 5724 5724 5724 5724 5724 5724 5723 5723 5723 5723 5722 5722 5722 5722 5721 5721 5720 5720 5720 5720 5719 5719 5718 5718 5717 5717 5717 5717 5717 5716 5716 5716 5717 5717 5717 5718 5718 5717 5716 5717 5717 5717 5717 5717 5717 5717 5718 5718 5718 5718 5717 5717 5716
5721 5721 5721 5721 5721 5721 5721 5721 5721 5721 5721 5721 5721 5720 5720 5720 5720 5720 5720 5720 5720 5720 5720 5720 5719 5719 5719 5719 5718 5718 5718 5717 5717 5717 5716 5716 5716 5715 5715 5715 5714 5714 5713 5713 5713 5713 5713 5713 5713 5713 5713 5714 5714 5714 5714 5713 5713 5713 5713 5713 5713 5713 5713 5713 5713 5713 5713 5713 5712
5718 5718 5718 5718 5718 5718 5718 5718 5718 5718 5718 5718 5718 5717 5717 5717 5717 5717 5716 5716 5716 5716 5716 5716 5715 5715 5715 5715 5714 5714 5714 5713 5713 5713 5713 5712 5712 5712 5711 5711 5710 5710 5710 5710 5709 5709 5709 5709 5709 5709 5708 5708 5709 5710 5710 5710 5710 5709 5709 5709 5709 5709 5709 5709 5709 5709 5709 5708 5708
5715 5715 5715 5715 5715 5715 5715 5715 5715 5715 5715 5714 5714 5714 5714 5713 5713 5713 5713 5712 5712 5712 5712 5711 5711 5711 5711 5710 5710 5710 5710 5709 5709 5709 5708 5708 5708 5708 5708 5707 5707 5707 5706 5706 5705 5705 5705 5705 5705 5705 5704 5704 5704 5704 5704 5705 5705 5705 5705 5704 5705 5705 5704 5704 5704 5704 5704 5704 5704
5712 5712 5712 5712 5712 5712 5711 5711 5711 5711 5711 5710 5710 5710 5710 5710 5709 5709 5709 5709 5708 5708 5708 5707 5707 5707 5707 5706 5706 5706 5705 5705 5705 5705 5704 5704 5704 5704 5704 5703 5703 5703 5703 5702 5702 5702 5702 5701 5701 5700 5700 5700 5700 5700 5699 5699 5700 5700 5700 5700 5700 5700 5700 5700 5700 5700 5700 5699 5699
5710 5709 5709 5709 5708 5708 5708 5708 5707 5707 5707 5707 5706 5706 5706 5706 5705 5705 5705 5705 5705 5704 5704 5703 5703 5703 5703 5702 5702 5702 5701 5701 5701 5700 5700 5700 5700 5699 5699 5699 5699 5699 5699 5698 5698 5698 5698 5697 5697 5696 5696 5695 5695 5695 5695 5695 5695 5695 5695 5695 5695 5695 5695 5695 5695 5695 5695 5695 5695
5706 5706 5705 5705 5705 5705 5705 5704 5704 5704 5703 5703 5703 5702 5702 5702 5701 5701 5701 5701 5700 5700 5700 5700 5699 5699 5699 5698 5698 5698 5697 5697 5697 5696 5696 5696 5695 5695 5695 5695 5694 5694 5694 5694 5694 5694 5694 5694 5693 5693 5692 5692 5691 5690 5690 5690 5690 5690 5690 5690 5691 5691 5691 5690 5690 5690 5690 5690 5690
5702 5702 5702 5702 5701 5701 5701 5701 5700 5700 5700 5699 5699 5699 5698 5698 5698 5697 5697 5697 5696 5696 5696 5695 5695 5695 5695 5694 5694 5694 5693 5693 5693 5692 5692 5692 5691 5691 5690 5690 5690 5690 5690 5690 5690 5690 5690 5689 5689 5689 5688 5688 5687 5687 5686 5686 5685 5685 5685 5685 5685 5686 5686 5686 5686 5685 5685 5685 5686
5699 5699 5698 5698 5698 5698 5697 5697 5697 5696 5696 5696 5695 5695 5695 5694 5694 5694 5693 5693 5692 5692 5692 5691 5691 5691 5690 5690 5690 5690 5689 5689 5689 5688 5688 5688 5687 5687 5686 5686 5685 5685 5685 5685 5685 5685 5685 5685 5684 5684 5684 5684 5683 5683 5682 5682 5681 5681 5680 5680 5680 5680 5680 5680 5680 5680 5681 5681 5681
5696 5695 5695 5695 5694 5694 5694 5693 5693 5693 5692 5692 5692 5691 5691 5691 5690 5690 5690 5689 5689 5688 5688 5688 5687 5687 5686 5686 5686 5685 5685 5685 5685 5685 5684 5684 5683 5683 5682 5682 5681 5681 5681 5680 5680 5680 5680 5680 5679 5679 5679 5679 5679 5678 5678 5677 5677 5676 5676 5676 5675 5675 5675 5675 5675 5675 5675 5675 5675
5693 5692 5692 5691 5691 5690 5690 5690 5689 5689 5689 5688 5688 5688 5687 5687 5687 5686 5686 5686 5685 5685 5685 5684 5684 5683 5683 5682 5682 5682 5681 5681 5681 5680 5680 5680 5679 5679 5678 5677 5677 5676 5676 5676 5676 5676 5675 5675 5675 5675 5674 5674 5674 5674 5673 5673 5673 5672 5671 5671 5671 5671 5670 5670 5670 5670 5670 5670 5670
5690 5689 5689 5688 5688 5687 5687 5686 5686 5685 5685 5685 5684 5684 5684 5683 5683 5683 5682 5682 5682 5681 5681 5680 5680 5679 5679 5678 5678 5678 5677 5677 5676 5676 5676 5675 5675 5675 5674 5673 5672 5672 5671 5671 5671 5671 5671 5670 5670 5670 5670 5669 5669 5669 5669 5668 5668 5667 5667 5666 5666 5666 5666 5665 5665 5665 5665 5665 5665
5686 5686 5686 5685 5685 5685 5684 5683 5683 5682 5682 5681 5681 5680 5680 5680 5679 5679 5678 5678 5678 5677 5677 5676 5676 5675 5675 5674 5674 5673 5673 5673 5672 5672 5671 5671 5670 5670 5670 5669 5668 5667 5667 5666 5666 5665 5665 5665 5665 5665 5665 5665 5664 5664 5664 5664 5663 5663 5662 5662 5661 5661 5661 5660 5660 5660 5660 5660 5660
5683 5683 5682 5682 5682 5681 5681 5680 5680 5679 5679 5678 5678 5677 5676 5676 5675 5675 5675 5674 5673 5673 5673 5672 5672 5671 5671 5670 5670 5669 5668 5668 5668 5667 5666 5666 5665 5665 5665 5664 5664 5663 5662 5662 5661 5660 5660 5660 5659 5659 5659 5659 5659 5659 5659 5659 5658 5658 5657 5657 5657 5656 5656 5656 5655 5655 5655 5655 5655
5679 5678 5678 5678 5678 5677 5677 5677 5676 5676 5675 5675 5674 5674 5673 5672 5672 5671 5670 5670 5669 5669 5668 5668 5667 5667 5667 5666 5665 5665 5664 5663 5663 5662 5662 5661 5660 5660 5660 5659 5659 5658 5658 5657 5657 5656 5655 5654 5654 5653 5653 5653 5653 5653 5653 5653 5653 5653 5653 5652 5652 5652 5651 5651 5651 5651 5651 5651 5651
5675 5675 5674 5674 5673 5673 5673 5672 5672 5671 5671 5670 5670 5670 5669 5668 5668 5667 5666 5666 5665 5665 5664 5664 5663 5663 5662 5662 5661 5660 5660 5659 5659 5658 5657 5656 5656 5655 5654 5654 5654 5653 5653 5653 5652 5651 5650 5650 5649 5648 5647 5647 5646 5647 5647 5647 5648 5648 5648 5648 5647 5647 5647 5647 5646 5646 5646 5646 5646
5671 5671 5670 5670 5669 5669 5668 5668 5667 5667 5666 5666 5665 5665 5664 5664 5663 5662 5662 5661 5661 5660 5660 5659 5659 5658 5658 5657 5657 5656 5655 5655 5654 5654 5653 5652 5651 5650 5650 5649 5649 5648 5648 5647 5647 5646 5646 5645 5644 5643 5642 5641 5641 5640 5641 5641 5641 5642 5642 5642 5642 5642 5642 5642 5642 5642 5641 5641 5641
5668 5668 5667 5667 5666 5665 5665 5664 5663 5663 5662 5661 5661 5660 5660 5659 5659 5658 5658 5657 5656 5656 5655 5655 5654 5654 5653 5652 5652 5651 5651 5650 5650 5649 5648 5647 5647 5646 5645 5644 5644 5643 5642 5642 5641 5641 5640 5639 5639 5638 5637 5637 5636 5636 5635 5635 5635 5635 5636 5636 5636 5636 5636 5637 5637 5637 5637 5636 5636
5665 5665 5664 5664 5663 5662 5662 5661 5660 5660 5659 5658 5657 5657 5656 5655 5655 5654 5654 5653 5652 5651 5651 5650 5650 5649 5648 5648 5647 5646 5645 5645 5645 5644 5643 5642 5642 5641 5640 5640 5639 5638 5637 5637 5636 5635 5635 5634 5633 5632 5632 5632 5631 5631 5630 5630 5630 5630 5630 5630 5630 5630 5631 5631 5631 5631 5631 5631 5631
5663 5662 5661 5661 5660 5660 5659 5658 5658 5657 5656 5655 5655 5654 5653 5652 5651 5650 5650 5649 5648 5648 5647 5646 5645 5645 5644 5643 5642 5641 5640 5640 5639 5639 5638 5637 5637 5636 5635 5635 5634 5633 5632 5631 5631 5630 5629 5628 5627 5626 5626 5626 5626 5626 5626 5625 5625 5625 5624 5624 5625 5625 5625 5625 5626 5626 5626 5626 5626
5660 5659 5659 5658 5657 5657 5656 5655 5655 5654 5653 5652 5651 5651 5650 5649 5648 5647 5646 5645 5645 5644 5643 5642 5641 5640 5640 5639 5638 5637 5636 5635 5634 5634 5633 5632 5631 5631 5630 5630 5629 5628 5627 5626 5625 5624 5623 5622 5621 5620 5619 5619 5620 5620 5620 5620 5620 5619 5619 5619 5619 5620 5620 5620 5620 5620 5620 5620 5621
5657 5656 5656 5655 5654 5653 5653 5652 5651 5650 5650 5649 5648 5647 5646 5645 5644 5643 5643 5642 5641 5640 5639 5638 5637 5636 5635 5634 5633 5632 5631 5630 5630 5629 5628 5627 5626 5626 5625 5625 5624 5623 5622 5621 5620 5619 5618 5616 5615 5614 5613 5613 5613 5613 5613 5613 5613 5613 5614 5614 5614 5614 5614 5615 5615 5615 5615 5615 5615
5654 5653 5652 5652 5651 5650 5649 5648 5647 5646 5645 5645 5644 5643 5642 5641 5640 5639 5638 5637 5636 5635 5635 5634 5633 5632 5631 5630 5629 5628 5627 5625 5625 5624 5623 5622 5621 5620 5620 5619 5618 5618 5617 5615 5615 5614 5612 5611 5610 5608 5607 5606 5606 5606 5606 5606 5607 5607 5607 5608 5608 5608 5609 5609 5609 5609 5609 5610 5610
5650 5650 5649 5648 5647 5646 5645 5644 5643 5642 5641 5640 5640 5638 5637 5636 5635 5635 5634 5633 5632 5631 5630 5629 5628 5627 5626 5625 5624 5623 5622 5620 5619 5618 5617 5616 5615 5615 5614 5613 5613 5612 5611 5610 5609 5608 5607 5605 5604 5603 5601 5600 5600 5600 5600 5600 5600 5600 5601 5601 5601 5602 5602 5602 5603 5603 5604 5604 5605
5647 5646 5645 5644 5643 5642 5641 5640 5639 5638 5637 5636 5635 5634 5633 5632 5631 5630 5629 5627 5626 5625 5624 5623 5622 5621 5620 5619 5618 5617 5616 5615 5614 5613 5611 5610 5610 5609 5608 5607 5607 5606 5605 5605 5603 5602 5600 5599 5598 5596 5595 5594 5594 5593 5593 5593 5594 5594 5594 5595 5595 5595 5595 5596 5596 5597 5597 5598 5599
5643 5642 5641 5640 5639 5638 5637 5636 5635 5634 5632 5631 5630 5629 5628 5627 5626 5625 5623 5622 5621 5620 5619 5618 5617 5616 5615 5613 5612 5611 5610 5609 5608 5606 5605 5604 5603 5602 5601 5601 5600 5600 5599 5598 5597 5596 5595 5593 5591 5590 5588 5587 5587 5586 5586 5586 5587 5587 5587 5588 5588 5589 5589 5589 5590 5590 5591 5592 5593
5640 5639 5638 5636 5635 5634 5633 5632 5630 5629 5628 5627 5625 5625 5623 5622 5621 5620 5618 5617 5616 5615 5614 5613 5611 5610 5609 5608 5606 5605 5604 5603 5601 5600 5599 5598 5597 5596 5595 5594 5593 5593 5592 5591 5590 5589 5588 5586 5585 5583 5581 5580 5580 5580 5580 5580 5580 5580 5580 5580 5581 5581 5582 5583 5583 5584 5584 5585 5586
5636 5635 5634 5632 5631 5630 5629 5627 5626 5625 5624 5622 5621 5620 5618 5617 5615 5614 5613 5612 5610 5609 5608 5607 5606 5604 5603 5602 5600 5599 5598 5596 5595 5594 5592 5591 5590 5589 5588 5587 5586 5585 5584 5583 5582 5581 5580 5579 5578 5575 5574 5572 5572 5572 5572 5572 5572 5572 5573 5573 5574 5574 5575 5575 5576 5577 5578 5579 5580
5632 5631 5630 5628 5627 5626 5624 5623 5622 5620 5619 5617 5616 5615 5613 5612 5610 5609 5608 5606 5605 5604 5602 5601 5600 5598 5597 5595 5594 5593 5591 5590 5589 5587 5586 5584 5583 5582 5581 5580 5579 5578 5577 5575 5574 5573 5572 5571 5570 5568 5566 5565 5564 5564 5564 5565 5565 5565 5565 5565 5566 5566 5567 5568 5569 5570 5571 5572 5573
5628 5627 5625 5624 5623 5621 5620 5618 5617 5615 5614 5613 5611 5610 5608 5607 5605 5603 5602 5600 5599 5598 5597 5595 5594 5592 5590 5589 5588 5586 5585 5584 5582 5580 5579 5577 5576 5575 5574 5573 5572 5571 5570 5568 5566 5565 5564 5563 5562 5560 5558 5556 5555 5555 5556 5556 5556 5556 5557 5558 5558 5559 5559 5560 5561 5562 5564 5565 5566
5624 5622 5621 5620 5618 5617 5615 5614 5612 5611 5609 5608 5606 5605 5603 5601 5600 5598 5596 5595 5593 5592 5591 5590 5588 5586 5584 5583 5581 5580 5578 5577 5575 5574 5572 5570 5569 5568 5566 5565 5565 5564 5562 5560 5559 5557 5556 5555 5553 5551 5549 5548 5547 5546 5547 5547 5547 5548 5548 5549 5550 5550 5551 5552 5553 5555 5556 5558 5560
5619 5618 5616 5615 5614 5612 5610 5609 5607 5605 5604 5603 5601 5599 5597 5596 5594 5592 5590 5589 5587 5586 5585 5584 5582 5580 5578 5576 5575 5573 5572 5570 5568 5567 5565 5563 5562 5560 5559 5558 5557 5556 5555 5553 5551 5550 5548 5547 5545 5543 5540 5539 5538 5537 5537 5538 5538 5538 5539 5540 5540 5541 5542 5543 5545 5546 5549 5550 5553
5615 5613 5611 5610 5609 5607 5605 5604 5602 5600 5599 5597 5595 5594 5592 5590 5588 5586 5585 5583 5581 5580 5578 5577 5576 5574 5572 5570 5568 5567 5565 5564 5561 5560 5558 5556 5555 5553 5552 5551 5550 5549 5547 5545 5544 5542 5540 5539 5537 5535 5532 5530 5528 5528 5527 5527 5528 5529 5529 5530 5531 5532 5533 5535 5536 5538 5541 5543 5545
5610 5608 5606 5605 5603 5602 5600 5598 5597 5595 5593 5591 5590 5588 5586 5584 5582 5580 5579 5577 5575 5573 5572 5570 5569 5567 5565 5564 5562 5560 5559 5557 5555 5553 5550 5549 5547 5545 5544 5543 5542 5541 5539 5538 5536 5534 5532 5530 5529 5527 5524 5522 5520 5518 5518 5518 5517 5518 5519 5520 5521 5523 5524 5525 5528 5530 5533 5535 5538
5605 5603 5601 5600 5598 5596 5595 5593 5591 5589 5587 5585 5584 5582 5580 5578 5576 5574 5572 5570 5569 5567 5565 5564 5562 5561 5559 5557 5555 5554 5552 5550 5549 5546 5544 5541 5540 5538 5536 5535 5534 5533 5531 5529 5528 5525 5524 5522 5520 5519 5516 5514 5511 5510 5509 5509 5508 5507 5508 5510 5511 5513 5515 5517 5519 5522 5525 5528 5531